TimeEST,TemperatureF,Dew PointF,Humidity,Sea Level PressureIn,VisibilityMPH,Wind Direction,Wind SpeedMPH,Gust SpeedMPH,PrecipitationIn,Events,Conditions,WindDirDegrees,DateUTC
12:50 AM,12.2,12.2,100,-9999,0.0,NNW,34.5,-,N/A,Fog-Snow,Light Snow,340,2013-02-25 05:50:00
1:52 AM,12.2,12.2,100,-9999,0.0,NNW,35.7,-,N/A,Fog-Snow,Light Snow,340,2013-02-25 06:52:00
2:56 AM,12.2,12.2,100,-9999,0.0,NNW,32.2,-,N/A,Fog-Snow,Light Freezing Fog,340,2013-02-25 07:56:00
3:48 AM,12.2,12.2,100,-9999,0.0,NNW,31.1,-,N/A,Fog-Snow,Light Freezing Fog,340,2013-02-25 08:48:00
4:48 AM,12.2,12.2,100,-9999,0.1,NNW,38.0,42.6,N/A,Fog-Snow,Light Freezing Fog,340,2013-02-25 09:48:00
5:52 AM,14.0,14.0,100,-9999,0.1,North,26.5,34.5,N/A,Fog-Snow,Light Freezing Fog,350,2013-02-25 10:52:00
6:53 AM,15.8,15.8,100,-9999,0.1,North,17.3,32.2,N/A,Fog-Snow,Light Freezing Fog,350,2013-02-25 11:53:00
7:52 AM,15.8,14.0,93,-9999,120.0,North,23.0,26.5,N/A,,Partly Cloudy,350,2013-02-25 12:52:00
8:52 AM,15.8,14.0,93,-9999,120.0,North,11.5,-,N/A,,Partly Cloudy,350,2013-02-25 13:52:00
9:55 AM,15.8,14.0,93,-9999,120.0,NNE,16.1,-,N/A,,Partly Cloudy,20,2013-02-25 14:55:00
10:48 AM,15.8,14.0,93,-9999,120.0,NNE,15.0,-,N/A,,Partly Cloudy,30,2013-02-25 15:48:00
11:56 AM,15.8,15.8,100,-9999,120.0,NE,8.1,-,N/A,,Scattered Clouds,50,2013-02-25 16:56:00
12:54 PM,15.8,15.8,100,-9999,0.1,NE,8.1,-,N/A,Fog,Light Freezing Fog,40,2013-02-25 17:54:00
1:51 PM,15.8,15.8,100,-9999,0.1,NE,6.9,-,N/A,Fog,Light Freezing Fog,50,2013-02-25 18:51:00
2:48 PM,15.8,15.8,100,-9999,0.0,North,3.5,-,N/A,Fog,Light Freezing Fog,10,2013-02-25 19:48:00
3:52 PM,15.8,15.8,100,-9999,0.0,WNW,3.5,-,N/A,Fog-Snow,Light Snow,290,2013-02-25 20:52:00
4:52 PM,12.2,12.2,100,-9999,0.1,NW,3.5,-,N/A,Fog-Snow,Light Snow,310,2013-02-25 21:52:00
5:50 PM,12.2,12.2,100,-9999,0.1,North,3.5,-,N/A,Fog,Light Freezing Fog,360,2013-02-25 22:50:00
6:48 PM,12.2,12.2,100,-9999,0.1,NNW,8.1,-,N/A,Fog,Light Freezing Fog,340,2013-02-25 23:48:00
7:52 PM,14.0,8.6,79,-9999,90.0,North,16.1,-,N/A,,Clear,10,2013-02-26 00:52:00
8:57 PM,14.0,8.6,79,-9999,90.0,NNE,12.7,-,N/A,,Partly Cloudy,30,2013-02-26 01:57:00
9:55 PM,12.2,8.6,85,-9999,90.0,NNE,9.2,-,N/A,,Partly Cloudy,30,2013-02-26 02:55:00
10:52 PM,12.2,8.6,85,-9999,90.0,ENE,8.1,-,N/A,,Clear,70,2013-02-26 03:52:00
11:50 PM,10.4,10.4,100,-9999,0.1,SW,5.8,-,N/A,Fog,Light Freezing Fog,220,2013-02-26 04:50:00